FW2439 Weather Reports


time (UTC)temp
C
wind
direction
speed
KPH
gust
KPH
rain 1hr
cm
rain 24hr
cm
rain mn
cm
humidity
%
barometer
mb
20260831150048 31 216 3.2 12.9 0.00 0.00 0.00 70 1020.0
20260831144607 30 248 1.6 6.4 0.00 0.00 0.00 75 1019.9
20260831143041 29 221 0.0 6.4 0.00 0.00 0.00 79 1019.9
20260831141536 27 224 3.2 8.0 0.00 0.00 0.00 83 1019.8
20260831140035 26 233 0.0 1.6 0.00 0.00 0.00 90 1019.8
20260831134529 25 227 0.0 4.8 0.00 0.00 0.00 96 1019.8
20260831133027 23 223 0.0 1.6 0.00 0.00 0.00 99 1019.8
20260831131521 22 223 0.0 0.0 0.00 0.00 0.00 100 1019.7
20260831130022 22 223 0.0 0.0 0.00 0.00 0.00 100 1019.6
20260831124520 21 223 0.0 0.0 0.00 0.00 0.00 100 1019.6
20260831123016 21 223 0.0 0.0 0.00 0.00 0.00 100 1019.4
20260831121516 21 223 0.0 0.0 0.00 0.00 0.00 100 1019.3
20260831120015 20 223 0.0 0.0 0.00 0.00 0.00 99 1019.3
20260831114518 20 223 0.0 0.0 0.00 0.00 0.00 99 1019.0
20260831113013 20 223 0.0 0.0 0.00 0.00 0.00 99 1018.8
20260831111511 20 223 0.0 0.0 0.00 0.00 0.00 99 1018.7
20260831110015 21 223 0.0 0.0 0.00 0.00 0.00 99 1018.7
20260831104522 21 223 0.0 0.0 0.00 0.00 0.00 99 1018.4
20260831103006 21 223 0.0 0.0 0.00 0.00 0.00 99 1018.3
20260831101505 21 223 0.0 0.0 0.00 0.00 0.00 99 1018.2
20260831100005 21 223 0.0 0.0 0.00 0.00 0.00 99 1018.3
20260831094505 21 223 0.0 0.0 0.00 0.00 0.00 99 1018.2
20260831093006 21 223 0.0 0.0 0.00 0.00 0.00 99 1017.9
20260831091501 21 223 0.0 0.0 0.00 0.00 0.00 99 1017.9
20260831090101 21 223 0.0 0.0 0.00 0.00 0.00 98 1017.9
20260831084635 21 223 0.0 0.0 0.00 0.00 0.00 98 1017.9
20260831083058 21 223 0.0 0.0 0.00 0.00 0.00 98 1017.7
20260831081557 21 223 0.0 0.0 0.00 0.00 0.00 98 1017.6
20260831080110 21 223 0.0 0.0 0.00 0.00 0.00 98 1017.7
20260831074603 21 223 0.0 0.0 0.00 0.00 0.00 98 1017.6
20260831073055 21 223 0.0 0.0 0.00 0.00 0.00 97 1017.6
20260831071605 22 223 0.0 0.0 0.00 0.00 0.00 97 1017.6
20260831070052 22 223 0.0 0.0 0.00 0.00 0.00 97 1017.6
20260831064551 22 223 0.0 0.0 0.00 0.00 0.00 97 1017.8
20260831063049 22 223 0.0 0.0 0.00 0.00 0.00 97 1017.9
20260831061547 22 223 0.0 0.0 0.00 0.00 0.00 97 1018.0
20260831060058 22 223 0.0 0.0 0.00 0.00 0.00 97 1017.9
20260831054545 22 223 0.0 0.0 0.00 0.00 0.00 96 1017.9
20260831053053 22 223 0.0 0.0 0.00 0.00 0.00 96 1017.9
20260831051543 22 223 0.0 0.0 0.00 0.00 0.00 95 1017.8
20260831050048 23 223 0.0 0.0 0.00 0.00 0.00 95 1017.8
20260831044537 23 223 0.0 0.0 0.00 0.00 0.00 95 1017.9
20260831043043 23 223 0.0 0.0 0.00 0.00 0.00 94 1017.9
20260831041551 23 223 0.0 0.0 0.00 0.00 0.00 94 1017.9
20260831040036 23 223 0.0 0.0 0.00 0.00 0.00 94 1017.9
20260831034538 24 223 0.0 0.0 0.00 0.00 0.00 93 1017.8
20260831033035 24 223 0.0 0.0 0.00 0.00 0.00 93 1017.8
20260831031540 24 223 0.0 0.0 0.00 0.00 0.00 93 1017.8
20260831030035 24 223 0.0 0.0 0.00 0.00 0.00 93 1017.7
20260831024533 24 223 0.0 0.0 0.00 0.00 0.00 92 1017.5
20260831023033 25 223 0.0 0.0 0.00 0.00 0.00 92 1017.6
20260831021533 25 223 0.0 0.0 0.00 0.00 0.00 91 1017.4
20260831020033 25 223 0.0 0.0 0.00 0.00 0.00 91 1017.2
20260831014537 26 223 0.0 0.0 0.00 0.00 0.00 89 1017.2
20260831013041 26 223 0.0 0.0 0.00 0.00 0.00 88 1017.0
20260831011531 26 223 0.0 0.0 0.00 0.00 0.00 87 1016.8
20260831010030 27 223 0.0 0.0 0.00 0.00 0.00 86 1016.6
20260831004530 27 223 0.0 0.0 0.00 0.00 0.00 84 1016.5
20260831003031 28 223 0.0 0.0 0.00 0.00 0.00 81 1016.5
20260831001535 28 223 0.0 0.0 0.00 0.00 0.00 79 1016.5
20260831000029 29 223 0.0 0.0 0.00 0.00 0.00 78 1016.5
20260830234531 30 223 0.0 0.0 0.00 0.00 0.00 74 1016.4
20260830233028 31 223 0.0 1.6 0.00 0.00 0.00 72 1016.5
20260830231526 31 222 0.0 1.6 0.00 0.00 0.00 71 1016.3
20260830230028 32 253 0.0 3.2 0.00 0.00 0.00 68 1016.3
20260830224526 32 258 0.0 3.2 0.00 0.00 0.00 67 1016.4
20260830223026 33 245 0.0 1.6 0.00 0.00 0.00 68 1016.3
20260830221522 32 250 0.0 3.2 0.00 0.00 0.00 68 1016.3
20260830220022 33 228 0.0 6.4 0.00 0.00 0.00 66 1016.3
20260830214522 33 270 0.0 1.6 0.00 0.00 0.00 68 1016.5
20260830213020 33 245 0.0 3.2 0.00 0.00 0.00 65 1016.4
20260830211520 33 288 0.0 4.8 0.00 0.00 0.00 67 1016.5
20260830210018 33 243 1.6 4.8 0.00 0.00 0.00 65 1016.6
20260830204517 32 94 0.0 3.2 0.00 0.00 0.00 67 1016.8
20260830203023 33 294 0.0 6.4 0.00 0.00 0.00 68 1016.9
20260830201514 33 257 1.6 8.0 0.00 0.00 0.00 64 1017.1
20260830200011 34 359 1.6 6.4 0.00 0.00 0.00 63 1017.3
20260830194510 34 267 0.0 6.4 0.00 0.00 0.00 61 1017.6
20260830193007 33 231 3.2 6.4 0.00 0.00 0.00 58 1017.8
20260830191505 34 354 0.0 4.8 0.00 0.00 0.00 60 1018.1
20260830190100 33 207 0.0 4.8 0.00 0.00 0.00 61 1018.4
20260830184557 32 224 0.0 3.2 0.00 0.00 0.00 66 1018.3
20260830183107 32 238 3.2 6.4 0.00 0.00 0.00 62 1018.3
20260830181553 32 240 3.2 9.7 0.00 0.00 0.00 66 1018.5
20260830180053 32 236 1.6 6.4 0.00 0.00 0.00 65 1018.7
20260830174555 32 104 1.6 6.4 0.00 0.00 0.00 68 1018.9
20260830173106 32 222 4.8 11.3 0.00 0.00 0.00 65 1019.0
20260830171551 32 217 1.6 8.0 0.00 0.00 0.00 70 1019.0
20260830170054 32 212 0.0 6.4 0.00 0.00 0.00 68 1019.2
20260830164552 32 161 9.7 20.9 0.00 0.00 0.00 66 1019.2
20260830163054 32 226 0.0 8.0 0.00 0.00 0.00 68 1019.2
20260830161559 32 223 3.2 9.7 0.00 0.00 0.00 69 1019.4
20260830160039 31 204 0.0 9.7 0.00 0.00 0.00 71 1019.5
20260830154537 31 217 3.2 9.7 0.00 0.00 0.00 72 1019.6
20260830153044 30 248 1.6 8.0 0.00 0.00 0.00 74 1019.6
20260830151531 30 177 1.6 4.8 0.00 0.00 0.00 74 1019.5